Year,Month,Day,Hour,Minute,Value (Times are PST for temperature in C)
2009,07,30,00,00,20.90
2009,07,30,00,01,20.90
2009,07,30,00,02,20.80
2009,07,30,00,03,20.70
2009,07,30,00,04,20.70
2009,07,30,00,05,20.60
2009,07,30,00,06,20.60
2009,07,30,00,07,20.50
2009,07,30,00,08,20.50
2009,07,30,00,09,20.50
2009,07,30,00,10,20.40
2009,07,30,00,11,20.40
2009,07,30,00,12,20.40
2009,07,30,00,13,20.40
2009,07,30,00,14,20.40
2009,07,30,00,15,20.50
2009,07,30,00,16,20.50
2009,07,30,00,17,20.60
2009,07,30,00,18,20.60
2009,07,30,00,19,20.60
2009,07,30,00,20,20.60
2009,07,30,00,21,20.70
2009,07,30,00,22,20.70
2009,07,30,00,23,20.70
2009,07,30,00,24,20.80
2009,07,30,00,25,20.80
2009,07,30,00,26,20.80
2009,07,30,00,27,20.80
2009,07,30,00,28,20.80
2009,07,30,00,29,20.90
2009,07,30,00,30,20.90
2009,07,30,00,31,20.90
2009,07,30,00,32,20.90
2009,07,30,00,33,20.90
2009,07,30,00,34,20.80
2009,07,30,00,35,20.80
2009,07,30,00,36,20.80
2009,07,30,00,37,20.90
2009,07,30,00,38,20.90
2009,07,30,00,39,20.90
2009,07,30,00,40,20.90
2009,07,30,00,41,20.90
2009,07,30,00,42,20.90
2009,07,30,00,43,21.00
2009,07,30,00,44,21.00
2009,07,30,00,45,21.00
2009,07,30,00,46,21.00
2009,07,30,00,47,21.10
2009,07,30,00,48,21.10
2009,07,30,00,49,21.10
2009,07,30,00,50,21.20
2009,07,30,00,51,21.20
2009,07,30,00,52,21.20
2009,07,30,00,53,21.20
2009,07,30,00,54,21.20
2009,07,30,00,55,21.30
2009,07,30,00,56,21.30
2009,07,30,00,57,21.30
2009,07,30,00,58,21.30
2009,07,30,00,59,21.30
2009,07,30,01,00,21.30
2009,07,30,01,01,21.30
2009,07,30,01,02,21.30
2009,07,30,01,03,21.30
2009,07,30,01,04,21.30
2009,07,30,01,05,21.30
2009,07,30,01,06,21.30
2009,07,30,01,07,21.30
2009,07,30,01,08,21.30
2009,07,30,01,09,21.30
2009,07,30,01,10,21.20
2009,07,30,01,11,21.20
2009,07,30,01,12,21.20
2009,07,30,01,13,21.10
2009,07,30,01,14,21.10
2009,07,30,01,15,21.10
2009,07,30,01,16,21.10
2009,07,30,01,17,21.10
2009,07,30,01,18,21.10
2009,07,30,01,19,21.10
2009,07,30,01,20,21.10
2009,07,30,01,21,21.10
2009,07,30,01,22,21.10
2009,07,30,01,23,21.10
2009,07,30,01,24,21.10
2009,07,30,01,25,21.10
2009,07,30,01,26,21.10
2009,07,30,01,27,21.00
2009,07,30,01,28,21.10
2009,07,30,01,29,21.10
2009,07,30,01,30,21.10
2009,07,30,01,31,21.10
2009,07,30,01,32,21.10
2009,07,30,01,33,21.10
2009,07,30,01,34,21.10
2009,07,30,01,35,21.10
2009,07,30,01,36,21.10
2009,07,30,01,37,21.10
2009,07,30,01,38,21.10
2009,07,30,01,39,21.10
2009,07,30,01,40,21.10
2009,07,30,01,41,21.10
2009,07,30,01,42,21.10
2009,07,30,01,43,21.10
2009,07,30,01,44,21.10
2009,07,30,01,45,21.20
2009,07,30,01,46,21.20
2009,07,30,01,47,21.20
2009,07,30,01,48,21.30
2009,07,30,01,49,21.30
2009,07,30,01,50,21.30
2009,07,30,01,51,21.30
2009,07,30,01,52,21.30
2009,07,30,01,53,21.30
2009,07,30,01,54,21.30
2009,07,30,01,55,21.30
2009,07,30,01,56,21.30
2009,07,30,01,57,21.30
2009,07,30,01,58,21.30
2009,07,30,01,59,21.30
2009,07,30,02,00,21.30
2009,07,30,02,01,21.30
2009,07,30,02,02,21.30
2009,07,30,02,03,21.30
2009,07,30,02,04,21.30
2009,07,30,02,05,21.30
2009,07,30,02,06,21.30
2009,07,30,02,07,21.30
2009,07,30,02,08,21.30
2009,07,30,02,09,21.30
2009,07,30,02,10,21.30
2009,07,30,02,11,21.30
2009,07,30,02,12,21.30
2009,07,30,02,13,21.40
2009,07,30,02,14,21.40
2009,07,30,02,15,21.40
2009,07,30,02,16,21.40
2009,07,30,02,17,21.40
2009,07,30,02,18,21.40
2009,07,30,02,19,21.40
2009,07,30,02,20,21.40
2009,07,30,02,21,21.40
2009,07,30,02,22,21.30
2009,07,30,02,23,21.30
2009,07,30,02,24,21.30
2009,07,30,02,25,21.30
2009,07,30,02,26,21.30
2009,07,30,02,27,21.30
2009,07,30,02,28,21.20
2009,07,30,02,29,21.20
2009,07,30,02,30,21.10
2009,07,30,02,31,21.00
2009,07,30,02,32,20.90
2009,07,30,02,33,20.90
2009,07,30,02,34,20.80
2009,07,30,02,35,20.80
2009,07,30,02,36,20.70
2009,07,30,02,37,20.70
2009,07,30,02,38,20.70
2009,07,30,02,39,20.60
2009,07,30,02,40,20.60
2009,07,30,02,41,20.60
2009,07,30,02,42,20.60
2009,07,30,02,43,20.60
2009,07,30,02,44,20.60
2009,07,30,02,45,20.60
2009,07,30,02,46,20.60
2009,07,30,02,47,20.60
2009,07,30,02,48,20.60
2009,07,30,02,49,20.60
2009,07,30,02,50,20.60
2009,07,30,02,51,20.60
2009,07,30,02,52,20.60
2009,07,30,02,53,20.60
2009,07,30,02,54,20.60
2009,07,30,02,55,20.60
2009,07,30,02,56,20.60
2009,07,30,02,57,20.60
2009,07,30,02,58,20.60
2009,07,30,02,59,20.60
2009,07,30,03,00,20.60
2009,07,30,03,01,20.60
2009,07,30,03,02,20.50
2009,07,30,03,03,20.50
2009,07,30,03,04,20.50
2009,07,30,03,05,20.50
2009,07,30,03,06,20.50
2009,07,30,03,07,20.50
2009,07,30,03,08,20.50
2009,07,30,03,09,20.50
2009,07,30,03,10,20.50
2009,07,30,03,11,20.60
2009,07,30,03,12,20.60
2009,07,30,03,13,20.60
2009,07,30,03,14,20.60
2009,07,30,03,15,20.60
2009,07,30,03,16,20.60
2009,07,30,03,17,20.60
2009,07,30,03,18,20.60
2009,07,30,03,19,20.60
2009,07,30,03,20,20.60
2009,07,30,03,21,20.60
2009,07,30,03,22,20.50
2009,07,30,03,23,20.50
2009,07,30,03,24,20.50
2009,07,30,03,25,20.50
2009,07,30,03,26,20.50
2009,07,30,03,27,20.50
2009,07,30,03,28,20.50
2009,07,30,03,29,20.50
2009,07,30,03,30,20.40
2009,07,30,03,31,20.40
2009,07,30,03,32,20.40
2009,07,30,03,33,20.30
2009,07,30,03,34,20.30
2009,07,30,03,35,20.30
2009,07,30,03,36,20.30
2009,07,30,03,37,20.30
2009,07,30,03,38,20.20
2009,07,30,03,39,20.20
2009,07,30,03,40,20.20
2009,07,30,03,41,20.20
2009,07,30,03,42,20.20
2009,07,30,03,43,20.10
2009,07,30,03,44,20.10
2009,07,30,03,45,20.00
2009,07,30,03,46,19.90
2009,07,30,03,47,19.90
2009,07,30,03,48,19.90
2009,07,30,03,49,19.90
2009,07,30,03,50,19.90
2009,07,30,03,51,19.90
2009,07,30,03,52,19.90
2009,07,30,03,53,19.90
2009,07,30,03,54,19.90
2009,07,30,03,55,19.90
2009,07,30,03,56,19.90
2009,07,30,03,57,19.90
2009,07,30,03,58,19.90
2009,07,30,03,59,19.90
2009,07,30,04,00,19.90
2009,07,30,04,01,19.90
2009,07,30,04,02,19.90
2009,07,30,04,03,19.90
2009,07,30,04,04,19.90
2009,07,30,04,05,19.90
2009,07,30,04,06,19.90
2009,07,30,04,07,19.80
2009,07,30,04,08,19.80
2009,07,30,04,09,19.70
2009,07,30,04,10,19.70
2009,07,30,04,11,19.60
2009,07,30,04,12,19.60
2009,07,30,04,13,19.50
2009,07,30,04,14,19.50
2009,07,30,04,15,19.50
2009,07,30,04,16,19.40
2009,07,30,04,17,19.40
2009,07,30,04,18,19.40
2009,07,30,04,19,19.30
2009,07,30,04,20,19.30
2009,07,30,04,21,19.20
2009,07,30,04,22,19.20
2009,07,30,04,23,19.10
2009,07,30,04,24,19.10
2009,07,30,04,25,19.10
2009,07,30,04,26,19.10
2009,07,30,04,27,19.10
2009,07,30,04,28,19.10
2009,07,30,04,29,19.10
2009,07,30,04,30,19.10
2009,07,30,04,31,19.10
2009,07,30,04,32,19.10
2009,07,30,04,33,19.00
2009,07,30,04,34,18.90
2009,07,30,04,35,18.90
2009,07,30,04,36,18.90
2009,07,30,04,37,18.90
2009,07,30,04,38,18.90
2009,07,30,04,39,18.90
2009,07,30,04,40,18.90
2009,07,30,04,41,18.90
2009,07,30,04,42,18.90
2009,07,30,04,43,18.90
2009,07,30,04,44,18.90
2009,07,30,04,45,18.90
2009,07,30,04,46,18.90
2009,07,30,04,47,18.90
2009,07,30,04,48,18.80
2009,07,30,04,49,18.80
2009,07,30,04,50,18.80
2009,07,30,04,51,18.80
2009,07,30,04,52,18.80
2009,07,30,04,53,18.80
2009,07,30,04,54,18.70
2009,07,30,04,55,18.70
2009,07,30,04,56,18.70
2009,07,30,04,57,18.70
2009,07,30,04,58,18.60
2009,07,30,04,59,18.60
2009,07,30,05,00,18.70
2009,07,30,05,01,18.70
2009,07,30,05,02,18.70
2009,07,30,05,03,18.70
2009,07,30,05,04,18.70
2009,07,30,05,05,18.70
2009,07,30,05,06,18.70
2009,07,30,05,07,18.70
2009,07,30,05,08,18.70
2009,07,30,05,09,18.70
2009,07,30,05,10,18.70
2009,07,30,05,11,18.70
2009,07,30,05,12,18.70
2009,07,30,05,13,18.80
2009,07,30,05,14,18.80
2009,07,30,05,15,18.90
2009,07,30,05,16,18.90
2009,07,30,05,17,18.90
2009,07,30,05,18,18.90
2009,07,30,05,19,18.90
2009,07,30,05,20,19.10
2009,07,30,05,21,19.10
2009,07,30,05,22,19.10
2009,07,30,05,23,19.10
2009,07,30,05,24,19.10
2009,07,30,05,25,19.10
2009,07,30,05,26,19.10
2009,07,30,05,27,19.10
2009,07,30,05,28,19.10
2009,07,30,05,29,19.10
2009,07,30,05,30,19.10
2009,07,30,05,31,19.10
2009,07,30,05,32,19.10
2009,07,30,05,33,19.10
2009,07,30,05,34,19.10
2009,07,30,05,35,19.10
2009,07,30,05,36,19.10
2009,07,30,05,37,19.10
2009,07,30,05,38,19.10
2009,07,30,05,39,19.10
2009,07,30,05,40,19.10
2009,07,30,05,41,19.10
2009,07,30,05,42,19.10
2009,07,30,05,43,19.10
2009,07,30,05,44,19.00
2009,07,30,05,45,18.90
2009,07,30,05,46,18.90
2009,07,30,05,47,18.90
2009,07,30,05,48,18.90
2009,07,30,05,49,18.80
2009,07,30,05,50,18.80
2009,07,30,05,51,18.80
2009,07,30,05,52,18.80
2009,07,30,05,53,18.70
2009,07,30,05,54,18.70
2009,07,30,05,55,18.70
2009,07,30,05,56,18.70
2009,07,30,05,57,18.70
2009,07,30,05,58,18.70
2009,07,30,05,59,18.70
2009,07,30,06,00,18.70
2009,07,30,06,01,18.70
2009,07,30,06,02,18.70
2009,07,30,06,03,18.70
2009,07,30,06,04,18.70
2009,07,30,06,05,18.70
2009,07,30,06,06,18.70
2009,07,30,06,07,18.70
2009,07,30,06,08,18.70
2009,07,30,06,09,18.70
2009,07,30,06,10,18.60
2009,07,30,06,11,18.60
2009,07,30,06,12,18.60
2009,07,30,06,13,18.60
2009,07,30,06,14,18.60
2009,07,30,06,15,18.60
2009,07,30,06,16,18.60
2009,07,30,06,17,18.60
2009,07,30,06,18,18.60
2009,07,30,06,19,18.60
2009,07,30,06,20,18.60
2009,07,30,06,21,18.60
2009,07,30,06,22,18.60
2009,07,30,06,23,18.70
2009,07,30,06,24,18.70
2009,07,30,06,25,18.70
2009,07,30,06,26,18.70
2009,07,30,06,27,18.70
2009,07,30,06,28,18.70
2009,07,30,06,29,18.70
2009,07,30,06,30,18.70
2009,07,30,06,31,18.70
2009,07,30,06,32,18.70
2009,07,30,06,33,18.70
2009,07,30,06,34,18.80
2009,07,30,06,35,18.80
2009,07,30,06,36,18.90
2009,07,30,06,37,18.90
2009,07,30,06,38,18.90
2009,07,30,06,39,18.90
2009,07,30,06,40,18.90
2009,07,30,06,41,19.00
2009,07,30,06,42,19.10
2009,07,30,06,43,19.10
2009,07,30,06,44,19.10
2009,07,30,06,45,19.10
2009,07,30,06,46,19.20
2009,07,30,06,47,19.20
2009,07,30,06,48,19.30
2009,07,30,06,49,19.30
2009,07,30,06,50,19.40
2009,07,30,06,51,19.40
2009,07,30,06,52,19.40
2009,07,30,06,53,19.50
2009,07,30,06,54,19.50
2009,07,30,06,55,19.60
2009,07,30,06,56,19.60
2009,07,30,06,57,19.70
2009,07,30,06,58,19.80
2009,07,30,06,59,19.80
2009,07,30,07,00,19.70
2009,07,30,07,01,19.70
2009,07,30,07,02,19.70
2009,07,30,07,03,19.70
2009,07,30,07,04,19.70
2009,07,30,07,05,19.80
2009,07,30,07,06,19.80
2009,07,30,07,07,19.80
2009,07,30,07,08,19.90
2009,07,30,07,09,19.80
2009,07,30,07,10,19.80
2009,07,30,07,11,19.80
2009,07,30,07,12,19.80
2009,07,30,07,13,19.80
2009,07,30,07,14,19.80
2009,07,30,07,15,19.90
2009,07,30,07,16,19.90
2009,07,30,07,17,19.90
2009,07,30,07,18,19.90
2009,07,30,07,19,19.90
2009,07,30,07,20,20.00
2009,07,30,07,21,20.10
2009,07,30,07,22,20.10
2009,07,30,07,23,20.20
2009,07,30,07,24,20.20
2009,07,30,07,25,20.20
2009,07,30,07,26,20.30
2009,07,30,07,27,20.30
2009,07,30,07,28,20.30
2009,07,30,07,29,20.30
2009,07,30,07,30,20.20
2009,07,30,07,31,20.20
2009,07,30,07,32,20.20
2009,07,30,07,33,20.20
2009,07,30,07,34,20.20
2009,07,30,07,35,20.10
2009,07,30,07,36,20.10
2009,07,30,07,37,20.00
2009,07,30,07,38,19.90
2009,07,30,07,39,19.80
2009,07,30,07,40,19.80
2009,07,30,07,41,19.70
2009,07,30,07,42,19.60
2009,07,30,07,43,19.60
2009,07,30,07,44,19.60
2009,07,30,07,45,19.60
2009,07,30,07,46,19.50
2009,07,30,07,47,19.40
2009,07,30,07,48,19.30
2009,07,30,07,49,19.30
2009,07,30,07,50,19.30
2009,07,30,07,51,19.30
2009,07,30,07,52,19.40
2009,07,30,07,53,19.40
2009,07,30,07,54,19.50
2009,07,30,07,55,19.50
2009,07,30,07,56,19.50
2009,07,30,07,57,19.50
2009,07,30,07,58,19.50
2009,07,30,07,59,19.50
2009,07,30,08,00,19.50
2009,07,30,08,01,19.60
2009,07,30,08,02,19.60
2009,07,30,08,03,19.60
2009,07,30,08,04,19.70
2009,07,30,08,05,19.70
2009,07,30,08,06,19.70
2009,07,30,08,07,19.80
2009,07,30,08,08,19.80
2009,07,30,08,09,19.80
2009,07,30,08,10,19.90
2009,07,30,08,11,20.00
2009,07,30,08,12,20.10
2009,07,30,08,13,20.20
2009,07,30,08,14,20.20
2009,07,30,08,15,20.40
2009,07,30,08,16,20.50
2009,07,30,08,17,20.60
2009,07,30,08,18,20.70
2009,07,30,08,19,20.80
2009,07,30,08,20,20.90
2009,07,30,08,21,21.20
2009,07,30,08,22,21.40
2009,07,30,08,23,21.50
2009,07,30,08,24,21.60
2009,07,30,08,25,21.80
2009,07,30,08,26,21.90
2009,07,30,08,27,21.90
2009,07,30,08,28,21.90
2009,07,30,08,29,22.00
2009,07,30,08,30,22.00
2009,07,30,08,31,22.00
2009,07,30,08,32,22.10
2009,07,30,08,33,22.10
2009,07,30,08,34,22.10
2009,07,30,08,35,22.10
2009,07,30,08,36,22.10
2009,07,30,08,37,22.10
2009,07,30,08,38,22.10
2009,07,30,08,39,22.20
2009,07,30,08,40,22.20
2009,07,30,08,41,22.10
2009,07,30,08,42,22.10
2009,07,30,08,43,22.10
2009,07,30,08,44,22.10
2009,07,30,08,45,22.10
2009,07,30,08,46,22.10
2009,07,30,08,47,22.20
2009,07,30,08,48,22.30
2009,07,30,08,49,22.30
2009,07,30,08,50,22.30
2009,07,30,08,51,22.40
2009,07,30,08,52,22.50
2009,07,30,08,53,22.50
2009,07,30,08,54,22.60
2009,07,30,08,55,22.60
2009,07,30,08,56,22.70
2009,07,30,08,57,22.80
2009,07,30,08,58,22.80
2009,07,30,08,59,22.90
2009,07,30,09,00,23.00
2009,07,30,09,01,23.10
2009,07,30,09,02,23.10
2009,07,30,09,03,23.10
2009,07,30,09,04,23.20
2009,07,30,09,05,23.20
2009,07,30,09,06,23.20
2009,07,30,09,07,23.20
2009,07,30,09,08,23.20
2009,07,30,09,09,23.20
2009,07,30,09,10,23.30
2009,07,30,09,11,23.30
2009,07,30,09,12,23.30
2009,07,30,09,13,23.40
2009,07,30,09,14,23.40
2009,07,30,09,15,23.60
2009,07,30,09,16,23.60
2009,07,30,09,17,23.70
2009,07,30,09,18,23.70
2009,07,30,09,19,23.80
2009,07,30,09,20,23.80
2009,07,30,09,21,23.80
2009,07,30,09,22,23.90
2009,07,30,09,23,23.90
2009,07,30,09,24,24.10
2009,07,30,09,25,24.10
2009,07,30,09,26,24.20
2009,07,30,09,27,24.20
2009,07,30,09,28,24.20
2009,07,30,09,29,24.20
2009,07,30,09,30,24.20
2009,07,30,09,31,24.30
2009,07,30,09,32,24.40
2009,07,30,09,33,24.40
2009,07,30,09,34,24.50
2009,07,30,09,35,24.60
2009,07,30,09,36,24.70
2009,07,30,09,37,24.80
2009,07,30,09,38,24.90
2009,07,30,09,39,24.90
2009,07,30,09,40,24.90
2009,07,30,09,41,24.90
2009,07,30,09,42,24.80
2009,07,30,09,43,24.70
2009,07,30,09,44,24.70
2009,07,30,09,45,24.60
2009,07,30,09,46,24.40
2009,07,30,09,47,24.20
2009,07,30,09,48,24.10
2009,07,30,09,49,24.10
2009,07,30,09,50,24.10
2009,07,30,09,51,24.00
2009,07,30,09,52,23.90
2009,07,30,09,53,23.80
2009,07,30,09,54,23.80
2009,07,30,09,55,24.00
2009,07,30,09,56,24.10
2009,07,30,09,57,24.10
2009,07,30,09,58,24.10
2009,07,30,09,59,24.10
2009,07,30,10,00,24.20
2009,07,30,10,01,24.20
2009,07,30,10,02,24.30
2009,07,30,10,03,24.40
2009,07,30,10,04,24.60
2009,07,30,10,05,24.80
2009,07,30,10,06,24.80
2009,07,30,10,07,24.70
2009,07,30,10,08,24.70
2009,07,30,10,09,24.60
2009,07,30,10,10,24.60
2009,07,30,10,11,24.60
2009,07,30,10,12,24.50
2009,07,30,10,13,24.40
2009,07,30,10,14,24.40
2009,07,30,10,15,24.40
2009,07,30,10,16,24.40
2009,07,30,10,17,24.40
2009,07,30,10,18,24.40
2009,07,30,10,19,24.50
2009,07,30,10,20,24.50
2009,07,30,10,21,24.60
2009,07,30,10,22,24.60
2009,07,30,10,23,24.70
2009,07,30,10,24,24.80
2009,07,30,10,25,24.80
2009,07,30,10,26,24.90
2009,07,30,10,27,24.80
2009,07,30,10,28,24.90
2009,07,30,10,29,24.70
2009,07,30,10,30,24.60
2009,07,30,10,31,24.50
2009,07,30,10,32,24.40
2009,07,30,10,33,24.40
2009,07,30,10,34,24.40
2009,07,30,10,35,24.40
2009,07,30,10,36,24.50
2009,07,30,10,37,24.50
2009,07,30,10,38,24.60
2009,07,30,10,39,24.60
2009,07,30,10,40,24.70
2009,07,30,10,41,24.80
2009,07,30,10,42,24.90
2009,07,30,10,43,25.00
2009,07,30,10,44,25.10
2009,07,30,10,45,25.10
2009,07,30,10,46,25.20
2009,07,30,10,47,25.30
2009,07,30,10,48,25.40
2009,07,30,10,49,25.40
2009,07,30,10,50,25.40
2009,07,30,10,51,25.50
2009,07,30,10,52,25.50
2009,07,30,10,53,25.60
2009,07,30,10,54,25.70
2009,07,30,10,55,25.80
2009,07,30,10,56,25.70
2009,07,30,10,57,25.50
2009,07,30,10,58,25.40
2009,07,30,10,59,25.20
2009,07,30,11,00,25.00
2009,07,30,11,01,24.90
2009,07,30,11,02,24.80
2009,07,30,11,03,24.90
2009,07,30,11,04,24.90
2009,07,30,11,05,24.90
2009,07,30,11,06,24.80
2009,07,30,11,07,24.50
2009,07,30,11,08,24.30
2009,07,30,11,09,24.00
2009,07,30,11,10,23.90
2009,07,30,11,11,23.70
2009,07,30,11,12,23.70
2009,07,30,11,13,23.60
2009,07,30,11,14,23.60
2009,07,30,11,15,23.50
2009,07,30,11,16,23.50
2009,07,30,11,17,23.40
2009,07,30,11,18,23.40
2009,07,30,11,19,23.30
2009,07,30,11,20,23.30
2009,07,30,11,21,23.50
2009,07,30,11,22,23.60
2009,07,30,11,23,23.60
2009,07,30,11,24,23.70
2009,07,30,11,25,23.70
2009,07,30,11,26,23.70
2009,07,30,11,27,23.80
2009,07,30,11,28,23.90
2009,07,30,11,29,24.00
2009,07,30,11,30,24.10
2009,07,30,11,31,24.10
2009,07,30,11,32,24.10
2009,07,30,11,33,24.10
2009,07,30,11,34,24.20
2009,07,30,11,35,24.40
2009,07,30,11,36,24.50
2009,07,30,11,37,24.50
2009,07,30,11,38,24.40
2009,07,30,11,39,24.30
2009,07,30,11,40,24.20
2009,07,30,11,41,24.10
2009,07,30,11,42,24.10
2009,07,30,11,43,24.10
2009,07,30,11,44,24.10
2009,07,30,11,45,24.10
2009,07,30,11,46,24.10
2009,07,30,11,47,24.10
2009,07,30,11,48,24.20
2009,07,30,11,49,24.20
2009,07,30,11,50,24.20
2009,07,30,11,51,24.40
2009,07,30,11,52,24.40
2009,07,30,11,53,24.30
2009,07,30,11,54,24.30
2009,07,30,11,55,24.20
2009,07,30,11,56,24.30
2009,07,30,11,57,24.30
2009,07,30,11,58,24.40
2009,07,30,11,59,24.40
2009,07,30,12,00,24.50
2009,07,30,12,01,24.50
2009,07,30,12,02,24.50
2009,07,30,12,03,24.50
2009,07,30,12,04,24.70
2009,07,30,12,05,24.80
2009,07,30,12,06,24.90
2009,07,30,12,07,25.00
2009,07,30,12,08,25.10
2009,07,30,12,09,25.10
2009,07,30,12,10,25.20
2009,07,30,12,11,25.30
2009,07,30,12,12,25.40
2009,07,30,12,13,25.60
2009,07,30,12,14,25.80
2009,07,30,12,15,25.80
2009,07,30,12,16,25.90
2009,07,30,12,17,25.90
2009,07,30,12,18,25.90
2009,07,30,12,19,26.00
2009,07,30,12,20,26.20
2009,07,30,12,21,26.20
2009,07,30,12,22,26.20
2009,07,30,12,23,26.30
2009,07,30,12,24,26.20
2009,07,30,12,25,26.20
2009,07,30,12,26,26.10
2009,07,30,12,27,26.10
2009,07,30,12,28,26.00
2009,07,30,12,29,26.00
2009,07,30,12,30,26.10
2009,07,30,12,31,26.10
2009,07,30,12,32,26.20
2009,07,30,12,33,26.20
2009,07,30,12,34,26.30
2009,07,30,12,35,26.30
2009,07,30,12,36,26.30
2009,07,30,12,37,26.20
2009,07,30,12,38,26.20
2009,07,30,12,39,26.20
2009,07,30,12,40,26.40
2009,07,30,12,41,26.40
2009,07,30,12,42,26.40
2009,07,30,12,43,26.50
2009,07,30,12,44,26.60
2009,07,30,12,45,26.70
2009,07,30,12,46,26.80
2009,07,30,12,47,26.90
2009,07,30,12,48,26.90
2009,07,30,12,49,26.90
2009,07,30,12,50,27.10
2009,07,30,12,51,27.10
2009,07,30,12,52,27.20
2009,07,30,12,53,27.40
2009,07,30,12,54,27.50
2009,07,30,12,55,27.80
2009,07,30,12,56,27.90
2009,07,30,12,57,27.90
2009,07,30,12,58,27.80
2009,07,30,12,59,27.80
2009,07,30,13,00,27.80
2009,07,30,13,01,27.90
2009,07,30,13,02,28.00
2009,07,30,13,03,28.10
2009,07,30,13,04,28.20
2009,07,30,13,05,28.30
2009,07,30,13,06,28.40
2009,07,30,13,07,28.50
2009,07,30,13,08,28.60
2009,07,30,13,09,28.70
2009,07,30,13,10,28.80
2009,07,30,13,11,28.90
2009,07,30,13,12,28.90
2009,07,30,13,13,29.00
2009,07,30,13,14,29.10
2009,07,30,13,15,29.10
2009,07,30,13,16,29.20
2009,07,30,13,17,29.40
2009,07,30,13,18,29.30
2009,07,30,13,19,29.30
2009,07,30,13,20,29.30
2009,07,30,13,21,29.30
2009,07,30,13,22,29.20
2009,07,30,13,23,29.20
2009,07,30,13,24,29.10
2009,07,30,13,25,29.10
2009,07,30,13,26,29.30
2009,07,30,13,27,29.40
2009,07,30,13,28,29.50
2009,07,30,13,29,29.50
2009,07,30,13,30,29.50
2009,07,30,13,31,29.50
2009,07,30,13,32,29.50
2009,07,30,13,33,29.40
2009,07,30,13,34,29.40
2009,07,30,13,35,29.40
2009,07,30,13,36,29.40
2009,07,30,13,37,29.50
2009,07,30,13,38,29.60
2009,07,30,13,39,29.70
2009,07,30,13,40,29.70
2009,07,30,13,41,29.80
2009,07,30,13,42,29.80
2009,07,30,13,43,29.80
2009,07,30,13,44,29.80
2009,07,30,13,45,29.70
2009,07,30,13,46,29.70
2009,07,30,13,47,29.80
2009,07,30,13,48,29.90
2009,07,30,13,49,29.90
2009,07,30,13,50,29.90
2009,07,30,13,51,29.80
2009,07,30,13,52,29.80
2009,07,30,13,53,29.80
2009,07,30,13,54,29.90
2009,07,30,13,55,29.90
2009,07,30,13,56,30.10
2009,07,30,13,57,30.20
2009,07,30,13,58,30.20
2009,07,30,13,59,30.30
2009,07,30,14,00,30.30
2009,07,30,14,01,30.40
2009,07,30,14,02,30.40
2009,07,30,14,03,30.40
2009,07,30,14,04,30.60
2009,07,30,14,05,30.50
2009,07,30,14,06,30.30
2009,07,30,14,07,30.20
2009,07,30,14,08,30.20
2009,07,30,14,09,30.10
2009,07,30,14,10,30.00
2009,07,30,14,11,29.90
2009,07,30,14,12,29.90
2009,07,30,14,13,30.00
2009,07,30,14,14,30.20
2009,07,30,14,15,30.40
2009,07,30,14,16,30.60
2009,07,30,14,17,30.60
2009,07,30,14,18,30.60
2009,07,30,14,19,30.60
2009,07,30,14,20,30.60
2009,07,30,14,21,30.60
2009,07,30,14,22,30.70
2009,07,30,14,23,30.80
2009,07,30,14,24,30.80
2009,07,30,14,25,30.90
2009,07,30,14,26,31.10
2009,07,30,14,27,31.10
2009,07,30,14,28,31.00
2009,07,30,14,29,30.90
2009,07,30,14,30,30.90
2009,07,30,14,31,30.90
2009,07,30,14,32,30.90
2009,07,30,14,33,30.90
2009,07,30,14,34,30.80
2009,07,30,14,35,30.80
2009,07,30,14,36,30.80
2009,07,30,14,37,30.80
2009,07,30,14,38,30.80
2009,07,30,14,39,30.90
2009,07,30,14,40,30.90
2009,07,30,14,41,31.00
2009,07,30,14,42,31.10
2009,07,30,14,43,31.00
2009,07,30,14,44,30.90
2009,07,30,14,45,31.00
2009,07,30,14,46,31.00
2009,07,30,14,47,31.10
2009,07,30,14,48,31.00
2009,07,30,14,49,31.10
2009,07,30,14,50,31.10
2009,07,30,14,51,31.10
2009,07,30,14,52,31.10
2009,07,30,14,53,31.10
2009,07,30,14,54,31.10
2009,07,30,14,55,31.20
2009,07,30,14,56,31.20
2009,07,30,14,57,31.30
2009,07,30,14,58,31.30
2009,07,30,14,59,31.30
2009,07,30,15,00,31.30
2009,07,30,15,01,31.10
2009,07,30,15,02,31.20
2009,07,30,15,03,31.10
2009,07,30,15,04,31.10
2009,07,30,15,05,31.10
2009,07,30,15,06,31.10
2009,07,30,15,07,31.20
2009,07,30,15,08,31.10
2009,07,30,15,09,31.10
2009,07,30,15,10,31.00
2009,07,30,15,11,31.00
2009,07,30,15,12,31.00
2009,07,30,15,13,31.00
2009,07,30,15,14,31.10
2009,07,30,15,15,31.10
2009,07,30,15,16,31.20
2009,07,30,15,17,31.30
2009,07,30,15,18,31.30
2009,07,30,15,19,31.20
2009,07,30,15,20,31.20
2009,07,30,15,21,31.20
2009,07,30,15,22,31.20
2009,07,30,15,23,31.20
2009,07,30,15,24,31.30
2009,07,30,15,25,31.30
2009,07,30,15,26,31.30
2009,07,30,15,27,31.30
2009,07,30,15,28,31.30
2009,07,30,15,29,31.20
2009,07,30,15,30,31.20
2009,07,30,15,31,31.30
2009,07,30,15,32,31.30
2009,07,30,15,33,31.30
2009,07,30,15,34,31.40
2009,07,30,15,35,31.30
2009,07,30,15,36,31.30
2009,07,30,15,37,31.30
2009,07,30,15,38,31.30
2009,07,30,15,39,31.40
2009,07,30,15,40,31.30
2009,07,30,15,41,31.20
2009,07,30,15,42,31.20
2009,07,30,15,43,31.20
2009,07,30,15,44,31.20
2009,07,30,15,45,31.10
2009,07,30,15,46,31.10
2009,07,30,15,47,31.10
2009,07,30,15,48,31.10
2009,07,30,15,49,31.10
2009,07,30,15,50,31.10
2009,07,30,15,51,31.10
2009,07,30,15,52,30.90
2009,07,30,15,53,30.50
2009,07,30,15,54,30.20
2009,07,30,15,55,30.00
2009,07,30,15,56,29.80
2009,07,30,15,57,29.60
2009,07,30,15,58,29.30
2009,07,30,15,59,29.30
2009,07,30,16,00,29.20
2009,07,30,16,01,29.10
2009,07,30,16,02,29.00
2009,07,30,16,03,28.90
2009,07,30,16,04,28.90
2009,07,30,16,05,28.90
2009,07,30,16,06,28.90
2009,07,30,16,07,28.90
2009,07,30,16,08,28.90
2009,07,30,16,09,28.90
2009,07,30,16,10,28.90
2009,07,30,16,11,28.90
2009,07,30,16,12,28.90
2009,07,30,16,13,28.90
2009,07,30,16,14,28.90
2009,07,30,16,15,28.90
2009,07,30,16,16,28.90
2009,07,30,16,17,28.90
2009,07,30,16,18,28.90
2009,07,30,16,19,28.90
2009,07,30,16,20,28.80
2009,07,30,16,21,28.70
2009,07,30,16,22,28.70
2009,07,30,16,23,28.80
2009,07,30,16,24,28.70
2009,07,30,16,25,28.70
2009,07,30,16,26,28.60
2009,07,30,16,27,28.60
2009,07,30,16,28,28.60
2009,07,30,16,29,28.70
2009,07,30,16,30,28.70
2009,07,30,16,31,28.70
2009,07,30,16,32,28.80
2009,07,30,16,33,28.90
2009,07,30,16,34,29.00
2009,07,30,16,35,29.20
2009,07,30,16,36,29.20
2009,07,30,16,37,29.00
2009,07,30,16,38,28.90
2009,07,30,16,39,28.90
2009,07,30,16,40,28.90
2009,07,30,16,41,28.90
2009,07,30,16,42,28.90
2009,07,30,16,43,28.90
2009,07,30,16,44,28.80
2009,07,30,16,45,28.90
2009,07,30,16,46,28.90
2009,07,30,16,47,28.80
2009,07,30,16,48,28.80
2009,07,30,16,49,28.80
2009,07,30,16,50,28.90
2009,07,30,16,51,28.90
2009,07,30,16,52,29.00
2009,07,30,16,53,29.30
2009,07,30,16,54,29.30
2009,07,30,16,55,29.40
2009,07,30,16,56,29.40
2009,07,30,16,57,29.40
2009,07,30,16,58,29.40
2009,07,30,16,59,29.20
2009,07,30,17,00,29.20
2009,07,30,17,01,29.20
2009,07,30,17,02,29.10
2009,07,30,17,03,29.20
2009,07,30,17,04,29.30
2009,07,30,17,05,29.40
2009,07,30,17,06,29.50
2009,07,30,17,07,29.70
2009,07,30,17,08,29.70
2009,07,30,17,09,29.70
2009,07,30,17,10,29.70
2009,07,30,17,11,29.60
2009,07,30,17,12,29.60
2009,07,30,17,13,29.50
2009,07,30,17,14,29.40
2009,07,30,17,15,29.50
2009,07,30,17,16,29.60
2009,07,30,17,17,29.60
2009,07,30,17,18,29.60
2009,07,30,17,19,29.60